Location: Northam
(31.6525°S, 116.6655°E)
Time: 17:01:17
(UTC+08:00)

Altair - Visible Passes

Search period start: 15 June 2021 00:00
Search period end: 25 June 2021 00:00
Orbit: 1501 x 1683 km, 47.2° (Epoch: 14 June)

Date Brightness Start Highest point End Pass type
(mag) Time Alt. Az. Time Alt. Az. Time Alt. Az.
15 Jun 9.2 02:57:44 21° SE 02:57:44 21° SE 03:00:20 10° SE visible
15 Jun 8.2 04:55:45 31° SSW 04:57:12 33° S 05:05:25 10° SE visible
16 Jun 9.5 02:33:59 15° SE 02:33:59 15° SE 02:35:10 10° SE visible
16 Jun 8.3 04:32:01 34° S 04:32:01 34° S 04:40:10 10° SE visible
16 Jun 8.4 06:30:38 10° SW 06:39:05 34° SSE 06:47:19 10° ESE visible
17 Jun 8.4 04:08:15 33° S 04:08:15 33° S 04:14:56 10° SE visible
17 Jun 8.4 06:06:16 13° SW 06:13:44 33° SSE 06:21:55 10° ESE visible
18 Jun 8.7 03:44:29 29° SSE 03:44:29 29° SSE 03:49:42 10° SE visible
18 Jun 8.4 05:42:30 18° SW 05:48:23 33° S 05:56:32 10° ESE visible
19 Jun 9.0 03:20:41 24° SSE 03:20:41 24° SSE 03:24:28 10° SE visible
19 Jun 8.4 05:18:42 23° SSW 05:23:02 32° S 05:31:09 10° ESE visible
20 Jun 9.3 02:56:54 19° SE 02:56:54 19° SE 02:59:16 10° SE visible
20 Jun 8.4 04:54:55 27° SSW 04:57:40 32° S 05:05:45 10° ESE visible
21 Jun 9.6 02:33:06 13° SE 02:33:06 13° SE 02:34:03 10° SE visible
21 Jun 8.4 04:31:07 30° S 04:32:17 31° S 04:40:23 10° ESE visible
21 Jun 8.0 06:29:43 10° SW 06:38:59 53° SSE 06:47:56 10° ENE visible
22 Jun 8.5 04:07:20 31° S 04:07:20 31° S 04:15:02 10° ESE visible
22 Jun 8.0 06:05:21 13° SW 06:13:43 50° SSE 06:22:37 10° ENE visible
23 Jun 8.7 03:43:33 29° SSE 03:43:33 29° SSE 03:49:40 10° ESE visible
23 Jun 8.1 05:41:35 19° SW 05:48:27 47° SSE 05:57:18 10° E visible
24 Jun 8.9 03:19:48 25° SSE 03:19:48 25° SSE 03:24:20 10° ESE visible
24 Jun 8.1 05:17:49 25° SSW 05:23:10 45° SSE 05:31:57 10° E visible
